period_start,C,m1,H,J0,J1,J2,J3,J4,J5,JA,JB,JC,JD,JJ,JK,JN,#
2016-03-17 00:01:58,0.09,3.58,0.00,13.00,17.29,21.74,15.11,48.76,1013.22,2069.99,2329.53,2340.13,2664.66,599.91,614.71,18.00,0000 0000 0000 0000 000000
2016-03-17 00:06:59,0.09,3.59,0.00,13.01,17.29,21.78,15.09,48.73,1013.23,2069.99,2328.42,2339.36,2663.68,599.73,614.52,18.05,0000 0000 0000 0000 000000
2016-03-17 00:12:00,0.10,3.59,0.00,13.03,17.29,21.78,15.09,48.58,1013.31,2070.00,2327.03,2338.46,2662.66,600.06,614.85,18.10,0000 0000 0000 0000 000000
2016-03-17 00:17:01,0.08,3.59,0.00,13.03,17.29,21.79,15.07,48.72,1013.42,2070.00,2325.60,2337.69,2661.87,600.12,614.99,18.15,0000 0000 0000 0000 000000
2016-03-17 00:22:03,0.05,3.60,0.00,13.04,17.29,21.79,15.09,48.85,1013.50,2070.01,2324.73,2337.00,2661.03,599.99,614.89,18.20,0000 0000 0000 0000 000000
2016-03-17 00:27:04,0.08,3.60,0.00,13.04,17.29,21.78,15.08,48.77,1013.67,2070.01,2323.88,2336.19,2660.10,600.00,614.92,18.25,0000 0000 0000 0000 000000
2016-03-17 00:32:05,0.10,3.61,0.00,13.04,17.30,21.83,15.10,48.88,1013.69,2070.01,2322.67,2335.28,2658.98,600.26,615.26,18.30,0000 0000 0000 0000 000000
2016-03-17 00:37:06,0.09,3.61,0.00,13.06,17.32,21.87,15.18,48.83,1013.69,2070.00,2321.50,2334.46,2658.03,600.44,615.36,18.35,0000 0000 0000 0000 000000
2016-03-17 00:42:07,0.08,3.62,0.00,13.08,17.33,21.87,15.12,49.00,1013.69,2070.00,2320.36,2333.66,2657.13,599.87,614.91,18.40,0000 0000 0000 0000 000000
2016-03-17 00:47:08,0.07,3.62,0.00,13.09,17.34,21.87,15.03,48.65,1013.68,2070.00,2319.38,2332.83,2656.15,599.87,614.76,18.45,0000 0000 0000 0000 000000
2016-03-17 00:52:10,0.08,3.63,0.00,13.09,17.34,21.90,15.17,48.84,1013.68,2070.00,2318.20,2332.01,2655.18,600.18,615.03,18.50,0000 0000 0000 0000 000000
2016-03-17 00:57:11,0.09,3.63,0.00,13.09,17.35,21.89,15.11,48.82,1013.69,2070.00,2317.03,2331.14,2654.25,599.79,614.64,18.55,0000 0000 0000 0000 000000
2016-03-17 01:02:13,0.08,3.63,0.00,13.09,17.37,21.90,15.09,48.64,1013.69,2070.00,2315.98,2330.34,2653.38,599.77,614.64,18.60,0000 0000 0000 0000 000000
2016-03-17 01:07:14,0.08,3.64,0.00,13.11,17.37,21.89,15.07,48.65,1013.69,2070.00,2314.90,2329.64,2652.41,599.93,614.89,18.65,0000 0000 0000 0000 000000
2016-03-17 01:12:15,0.08,3.64,0.00,13.12,17.37,21.93,15.12,48.79,1013.69,2070.00,2313.64,2328.83,2651.64,599.84,614.67,18.70,0000 0000 0000 0000 000000
2016-03-17 01:17:17,0.08,3.65,0.00,13.14,17.39,21.90,15.19,48.92,1013.69,2070.00,2312.52,2328.01,2650.70,600.21,614.93,18.75,0000 0000 0000 0000 000000
2016-03-17 01:22:18,0.08,3.65,0.00,13.16,17.39,21.89,15.11,48.78,1013.69,2069.98,2311.49,2327.18,2649.84,599.75,614.49,18.80,0000 0000 0000 0000 000000
2016-03-17 01:27:20,0.09,3.65,0.00,13.19,17.42,21.96,15.09,48.83,1013.69,2069.97,2310.36,2326.42,2648.89,600.12,614.75,18.85,0000 0000 0000 0000 000000
2016-03-17 01:32:21,0.08,3.66,0.00,13.20,17.44,22.01,15.06,49.13,1013.69,2069.97,2309.11,2325.61,2648.00,599.54,614.17,18.90,0000 0000 0000 0000 000000
2016-03-17 01:37:23,0.07,3.66,0.00,13.22,17.46,21.98,15.18,49.11,1013.69,2069.96,2308.16,2324.91,2647.11,600.50,615.13,18.95,0000 0000 0000 0000 000000
2016-03-17 01:42:23,0.08,3.67,0.00,13.25,17.48,22.02,15.21,49.14,1013.69,2069.94,2307.14,2324.07,2646.29,600.76,615.30,19.00,0000 0000 0000 0000 000000
2016-03-17 01:47:25,0.08,3.67,0.00,13.30,17.51,22.07,15.03,49.22,1013.69,2069.93,2306.16,2323.38,2645.49,599.58,614.03,19.05,0000 0000 0000 0000 000000
2016-03-17 01:52:26,0.01,3.67,0.00,13.32,17.54,22.10,15.16,49.17,1013.69,2069.54,2305.64,2322.76,2644.54,600.20,614.56,19.10,0000 0000 0000 0000 000000
2016-03-17 01:57:27,0.04,3.68,0.00,13.36,17.58,22.11,15.03,49.01,1013.69,2069.23,2304.85,2322.02,2643.73,600.25,614.51,19.15,0000 0000 0000 0000 000000
2016-03-17 02:02:28,0.07,3.68,0.00,13.41,17.61,22.20,15.04,48.98,1013.69,2069.04,2303.59,2321.21,2642.98,600.02,614.23,19.20,0000 0000 0000 0000 000000
2016-03-17 02:07:30,0.07,3.68,0.00,13.45,17.64,22.22,15.08,48.98,1013.69,2069.01,2302.72,2320.51,2642.07,600.18,614.36,19.25,0000 0000 0000 0000 000000
2016-03-17 02:12:31,0.05,3.69,0.00,13.47,17.68,22.26,15.08,49.11,1013.69,2069.00,2301.93,2319.86,2641.12,599.62,613.70,19.30,0000 0000 0000 0000 000000
2016-03-17 02:17:32,0.08,3.69,0.00,13.53,17.71,22.31,15.08,48.99,1013.69,2069.00,2300.93,2319.05,2640.26,599.89,613.90,19.35,0000 0000 0000 0000 000000
2016-03-17 02:22:33,0.09,3.69,0.00,13.58,17.75,22.30,15.17,49.20,1013.69,2069.00,2299.89,2318.19,2639.43,600.00,613.85,19.40,0000 0000 0000 0000 000000
2016-03-17 02:27:35,0.09,3.70,0.00,13.62,17.78,22.32,15.03,49.29,1013.70,2068.99,2298.82,2317.46,2638.54,600.19,614.03,19.45,0000 0000 0000 0000 000000
2016-03-17 02:32:36,0.05,3.70,0.00,13.66,17.80,22.35,15.15,49.21,1013.70,2068.94,2297.90,2316.83,2637.73,599.89,613.63,19.50,0000 0000 0000 0000 000000
2016-03-17 02:37:37,0.05,3.71,0.00,13.71,17.83,22.37,15.08,49.13,1013.73,2068.80,2296.90,2316.03,2636.87,600.10,613.81,19.55,0000 0000 0000 0000 000000
2016-03-17 02:42:39,0.02,3.71,0.00,13.76,17.86,22.38,15.00,48.88,1013.71,2068.34,2296.02,2315.24,2636.03,600.13,613.58,19.60,0000 0000 0000 0000 000000
2016-03-17 02:47:41,0.06,3.71,0.00,13.82,17.89,22.41,15.12,48.92,1013.76,2068.04,2295.16,2314.65,2635.15,600.03,613.37,19.65,0000 0000 0000 0000 000000
2016-03-17 02:52:42,0.06,3.71,0.00,13.87,17.91,22.43,15.08,48.96,1013.87,2068.02,2294.21,2313.99,2634.34,600.18,613.51,19.70,0000 0000 0000 0000 000000
2016-03-17 02:57:43,0.08,3.72,0.00,13.91,17.94,22.46,15.03,48.79,1013.80,2068.00,2293.37,2313.16,2633.56,600.02,613.22,19.75,0000 0000 0000 0000 000000
2016-03-17 03:02:44,0.07,3.72,0.00,13.94,17.97,22.45,15.07,48.89,1013.73,2068.00,2292.46,2312.61,2632.82,599.91,613.08,19.80,0000 0000 0000 0000 000000
2016-03-17 03:07:46,0.06,3.72,0.00,14.00,17.99,22.47,15.08,48.90,1013.76,2068.00,2291.46,2311.98,2632.02,599.97,612.94,19.85,0000 0000 0000 0000 000000
2016-03-17 03:12:47,0.08,3.73,0.00,14.05,18.02,22.52,15.03,48.84,1013.91,2068.00,2290.66,2311.18,2631.22,600.05,612.94,19.90,0000 0000 0000 0000 000000
2016-03-17 03:17:48,0.08,3.73,0.00,14.11,18.05,22.53,15.03,48.74,1013.94,2067.98,2289.62,2310.57,2630.50,600.04,612.92,19.95,0000 0000 0000 0000 000000
2016-03-17 03:22:49,0.04,3.73,0.00,14.15,18.08,22.57,15.05,48.79,1014.07,2067.87,2288.81,2309.92,2629.62,600.23,613.06,20.00,0000 0000 0000 0000 000000
2016-03-17 03:27:51,0.01,3.73,0.00,14.20,18.12,22.59,15.08,48.92,1014.12,2067.42,2288.05,2309.11,2628.84,600.46,613.30,20.05,0000 0000 0000 0000 000000
2016-03-17 03:32:52,0.05,3.74,0.00,14.25,18.16,22.65,15.04,48.89,1014.11,2067.06,2287.18,2308.38,2627.95,600.15,612.73,20.10,0000 0000 0000 0000 000000
2016-03-17 03:37:53,0.06,3.74,0.00,14.30,18.20,22.69,15.03,48.82,1014.01,2067.01,2286.35,2307.79,2627.10,600.07,612.58,20.15,0000 0000 0000 0000 000000
2016-03-17 03:42:54,0.07,3.74,0.00,14.35,18.24,22.73,15.04,48.68,1013.96,2067.00,2285.14,2306.99,2626.28,600.03,612.25,20.20,0000 0000 0000 0000 000000
2016-03-17 03:47:55,0.09,3.75,0.00,14.41,18.28,22.79,14.99,48.95,1013.87,2066.99,2284.15,2306.12,2625.51,600.06,612.19,20.25,0000 0000 0000 0000 000000
2016-03-17 03:52:56,0.08,3.75,0.00,14.48,18.33,22.83,14.97,48.89,1013.94,2066.99,2283.23,2305.50,2624.70,600.20,612.29,20.30,0000 0000 0000 0000 000000
2016-03-17 03:57:58,0.05,3.76,0.00,14.55,18.37,22.86,15.05,48.95,1014.04,2066.94,2282.26,2304.86,2623.87,600.27,612.29,20.35,0000 0000 0000 0000 000000
2016-03-17 04:02:59,0.04,3.76,0.00,14.61,18.41,22.90,14.96,48.95,1014.08,2066.59,2281.34,2304.05,2623.06,599.56,611.49,20.40,0000 0000 0000 0000 000000
2016-03-17 04:08:00,0.02,3.76,0.00,14.67,18.46,22.92,15.04,48.89,1014.04,2066.13,2280.74,2303.34,2622.34,600.16,611.94,20.45,0000 0000 0000 0000 000000
2016-03-17 04:13:02,0.07,3.76,0.00,14.74,18.51,22.96,14.98,48.85,1014.14,2066.00,2279.70,2302.65,2621.40,600.40,611.97,20.50,0000 0000 0000 0000 000000
2016-03-17 04:18:03,0.04,3.77,0.00,14.80,18.57,23.05,15.03,49.07,1014.16,2066.00,2278.98,2302.00,2620.57,599.89,611.42,20.55,0000 0000 0000 0000 000000
2016-03-17 04:23:05,0.08,3.77,0.00,14.85,18.62,23.10,15.07,49.06,1014.10,2065.98,2278.04,2301.21,2619.73,600.34,611.74,20.60,0000 0000 0000 0000 000000
2016-03-17 04:28:06,0.04,3.77,0.00,14.90,18.68,23.17,14.96,48.99,1013.98,2065.70,2277.08,2300.48,2618.76,600.22,611.56,20.65,0000 0000 0000 0000 000000
2016-03-17 04:33:07,0.01,3.77,0.00,14.95,18.74,23.25,14.99,48.97,1014.02,2065.15,2276.31,2299.80,2617.86,599.99,611.13,20.70,0000 0000 0000 0000 000000
2016-03-17 04:38:09,0.07,3.78,0.00,14.99,18.80,23.31,15.02,48.90,1014.15,2065.00,2275.46,2298.93,2616.92,599.96,611.08,20.75,0000 0000 0000 0000 000000
2016-03-17 04:43:10,0.09,3.78,0.00,15.02,18.86,23.48,15.00,49.05,1014.17,2065.00,2274.35,2298.07,2616.04,600.04,611.06,20.80,0000 0000 0000 0000 000000
2016-03-17 04:48:12,0.08,3.78,0.00,15.08,18.92,23.46,15.06,49.01,1014.17,2064.95,2273.26,2297.27,2615.14,600.19,611.11,20.85,0000 0000 0000 0000 000000
2016-03-17 04:53:13,0.01,3.79,0.00,15.14,18.98,23.52,14.98,48.94,1014.19,2064.42,2272.35,2296.50,2614.17,599.87,610.64,20.90,0000 0000 0000 0000 000000
2016-03-17 04:58:14,0.06,3.79,0.00,15.19,19.04,23.68,15.00,48.84,1014.18,2064.04,2271.51,2295.71,2613.15,600.07,610.79,20.95,0000 0000 0000 0000 000000
2016-03-17 05:03:15,0.07,3.79,0.00,15.22,19.11,23.71,15.02,48.86,1014.20,2064.00,2270.58,2294.95,2612.24,600.02,610.58,21.00,0000 0000 0000 0000 000000
2016-03-17 05:08:17,0.08,3.80,0.00,15.27,19.17,23.77,15.06,48.83,1014.22,2063.99,2269.72,2294.14,2611.39,599.97,610.53,21.06,0000 0000 0000 0000 000000
2016-03-17 05:13:18,0.03,3.80,0.00,15.30,19.23,23.75,14.93,48.86,1014.23,2063.58,2268.65,2293.28,2610.33,599.66,610.18,21.11,0000 0000 0000 0000 000000
2016-03-17 05:18:19,0.06,3.80,0.00,15.35,19.30,23.82,14.96,48.93,1014.25,2063.05,2267.55,2292.39,2609.35,600.09,610.51,21.16,0000 0000 0000 0000 000000
2016-03-17 05:23:20,0.08,3.80,0.00,15.41,19.36,23.90,15.02,49.04,1014.22,2063.00,2266.49,2291.58,2608.39,600.04,610.39,21.21,0000 0000 0000 0000 000000
2016-03-17 05:28:21,0.10,3.81,0.00,15.44,19.42,23.92,15.00,49.15,1014.25,2063.00,2265.10,2290.58,2607.31,600.11,610.36,21.26,0000 0000 0000 0000 000000
2016-03-17 05:33:22,0.14,3.81,0.00,15.49,19.48,24.00,14.97,49.23,1014.27,2062.94,2263.32,2289.25,2605.86,600.05,610.09,21.31,0000 0000 0000 0000 000000
2016-03-17 05:38:24,0.07,3.82,0.00,15.54,19.54,24.03,14.94,49.21,1014.23,2062.45,2261.44,2287.78,2604.24,599.85,609.83,21.36,0000 0000 0000 0000 000000
2016-03-17 05:43:25,0.30,3.83,0.00,15.57,19.59,24.06,14.97,49.12,1014.27,2062.03,2257.77,2285.20,2601.33,600.21,610.18,21.41,0000 0000 0000 0000 000000
2016-03-17 05:48:26,0.18,3.84,0.00,15.62,19.64,24.11,14.99,48.96,1014.36,2062.00,2254.68,2283.11,2599.06,600.15,610.15,21.46,0000 0000 0000 0000 000000
2016-03-17 05:53:27,0.21,3.85,0.00,15.65,19.68,24.21,14.98,49.03,1014.57,2062.00,2252.41,2281.39,2597.09,600.09,610.08,21.51,0000 0000 0000 0000 000000
2016-03-17 05:58:28,0.49,3.87,0.00,15.70,19.72,24.25,14.94,48.86,1014.64,2061.98,2247.07,2277.64,2592.84,599.85,609.65,21.56,0000 0000 0000 0000 000000
2016-03-17 06:03:30,0.37,3.90,0.00,15.74,19.76,24.26,14.97,48.92,1014.63,2061.68,2241.27,2273.56,2588.22,600.06,609.90,21.61,0000 0000 0000 0000 000000
2016-03-17 06:08:31,0.23,3.91,0.00,15.79,19.80,24.30,14.98,48.96,1014.61,2061.18,2237.67,2270.87,2585.12,600.17,609.79,21.66,0000 0000 0000 0000 000000
2016-03-17 06:13:33,0.25,3.92,0.00,15.82,19.83,24.31,14.99,48.81,1014.60,2061.02,2234.58,2268.62,2582.67,600.32,609.87,21.71,0000 0000 0000 0000 000000
2016-03-17 06:18:33,0.29,3.94,0.00,15.85,19.86,24.29,15.01,48.74,1014.47,2061.00,2230.76,2266.04,2579.79,600.25,609.72,21.76,0000 0000 0000 0000 000000
2016-03-17 06:23:35,0.20,3.95,0.00,15.89,19.89,24.33,14.90,48.72,1014.57,2060.99,2227.88,2263.97,2577.44,599.89,609.36,21.81,0000 0000 0000 0000 000000
2016-03-17 06:28:36,0.20,3.96,0.00,15.92,19.92,24.37,14.94,48.58,1014.62,2060.94,2225.33,2262.19,2575.42,599.86,609.31,21.86,0000 0000 0000 0000 000000
2016-03-17 06:33:37,0.20,3.97,0.00,15.94,19.95,24.39,14.96,48.70,1014.49,2060.75,2222.47,2260.21,2573.17,600.33,609.69,21.91,0000 0000 0000 0000 000000
2016-03-17 06:38:39,0.20,3.98,0.00,15.98,19.98,24.40,14.98,48.58,1014.57,2060.49,2219.64,2258.20,2570.95,600.06,609.34,21.96,0000 0000 0000 0000 000000
2016-03-17 06:43:40,0.39,3.99,0.00,16.02,20.01,24.41,14.88,48.63,1014.58,2060.09,2214.95,2254.95,2567.29,599.94,609.14,22.01,0000 0000 0000 0000 000000
2016-03-17 06:48:41,0.49,4.02,0.00,16.06,20.03,24.48,14.91,48.56,1014.62,2060.03,2208.75,2250.70,2562.54,600.02,609.14,22.06,0000 0000 0000 0000 000000
2016-03-17 06:53:42,0.62,4.04,0.00,16.09,20.06,24.50,15.00,48.68,1014.64,2060.00,2201.09,2245.48,2556.99,600.36,609.40,22.11,0000 0000 0000 0000 000000
2016-03-17 06:58:44,0.57,4.08,0.00,16.11,20.08,24.53,15.09,48.83,1014.64,2060.00,2193.47,2240.38,2551.33,600.34,609.38,22.16,0000 0000 0000 0000 000000
2016-03-17 07:03:45,0.47,4.10,0.00,16.15,20.11,24.52,14.87,48.58,1014.65,2060.00,2187.30,2236.31,2546.63,600.04,608.96,22.21,0000 0000 0000 0000 000000
2016-03-17 07:08:46,0.42,4.13,0.00,16.19,20.13,24.56,14.88,48.51,1014.66,2059.98,2182.07,2232.66,2542.46,599.80,608.79,22.26,0000 0000 0000 0000 000000
2016-03-17 07:13:47,0.15,4.14,0.00,16.23,20.16,24.57,14.90,48.63,1014.66,2059.95,2179.54,2230.81,2540.25,600.09,609.05,22.31,0000 0000 0000 0000 000000
2016-03-17 07:18:49,0.10,4.14,0.00,16.24,20.18,24.60,14.92,48.62,1014.66,2059.69,2177.92,2229.61,2538.85,599.72,608.49,22.36,0000 0000 0000 0000 000000
2016-03-17 07:23:50,0.06,4.15,0.00,16.28,20.20,24.63,14.89,48.45,1014.66,2059.14,2176.50,2228.49,2537.66,600.03,608.69,22.41,0000 0000 0000 0000 000000
2016-03-17 07:28:52,0.14,4.15,0.00,16.33,20.23,24.66,14.84,48.43,1014.67,2059.02,2174.70,2227.21,2536.21,599.91,608.46,22.46,0000 0000 0000 0000 000000
2016-03-17 07:33:53,0.21,4.16,0.00,16.35,20.26,24.69,14.89,48.47,1014.68,2059.01,2172.20,2225.44,2534.20,600.24,608.80,22.51,0000 0000 0000 0000 000000
2016-03-17 07:38:54,0.22,4.17,0.00,16.39,20.29,24.72,14.92,48.51,1014.68,2059.00,2169.61,2223.61,2532.12,600.11,608.59,22.56,0000 0000 0000 0000 000000
2016-03-17 07:43:55,0.24,4.18,0.00,16.42,20.31,24.75,14.95,48.65,1014.71,2059.00,2166.78,2221.54,2529.77,600.27,608.77,22.61,0000 0000 0000 0000 000000
2016-03-17 07:48:56,0.31,4.20,0.00,16.44,20.34,24.79,14.91,48.49,1014.75,2059.00,2163.25,2219.07,2527.03,599.74,608.21,22.66,0000 0000 0000 0000 000000
2016-03-17 07:53:58,0.28,4.21,0.00,16.47,20.37,24.81,14.90,48.54,1014.76,2058.97,2159.67,2216.50,2524.09,599.78,608.14,22.71,0000 0000 0000 0000 000000
2016-03-17 07:58:59,0.22,4.23,0.00,16.51,20.39,24.84,14.90,48.48,1015.02,2058.82,2156.53,2214.34,2521.65,600.15,608.58,22.76,0000 0000 0000 0000 000000
2016-03-17 08:04:01,0.25,4.24,0.00,16.52,20.41,24.83,14.89,48.42,1015.15,2058.77,2153.48,2212.20,2519.30,600.02,608.51,22.81,0000 0000 0000 0000 000000
2016-03-17 08:09:02,0.22,4.25,0.00,16.54,20.43,24.87,14.91,48.46,1015.15,2058.54,2150.54,2210.17,2517.06,600.06,608.41,22.86,0000 0000 0000 0000 000000
2016-03-17 08:14:03,0.21,4.26,0.00,16.57,20.45,24.88,14.90,48.45,1015.14,2058.17,2147.44,2208.03,2514.63,599.93,608.35,22.91,0000 0000 0000 0000 000000
2016-03-17 08:19:04,0.23,4.27,0.00,16.59,20.47,24.89,14.91,48.42,1015.15,2058.07,2144.58,2205.90,2512.31,600.28,608.64,22.96,0000 0000 0000 0000 000000
2016-03-17 08:24:06,0.19,4.28,0.00,16.61,20.49,24.90,14.88,48.42,1015.15,2058.03,2142.18,2204.17,2510.16,599.93,608.22,23.01,0000 0000 0000 0000 000000
2016-03-17 08:29:07,0.20,4.29,0.00,16.67,20.52,24.93,14.87,48.42,1015.15,2058.00,2139.66,2202.51,2508.32,599.72,607.93,23.06,0000 0000 0000 0000 000000
2016-03-17 08:34:08,0.20,4.30,0.00,16.71,20.53,24.96,14.95,48.54,1015.15,2058.00,2137.10,2200.86,2506.65,600.27,608.37,23.11,0000 0000 0000 0000 000000
2016-03-17 08:39:10,0.14,4.31,0.00,16.83,20.54,24.97,14.88,48.46,1015.15,2058.00,2135.20,2199.62,2505.31,600.34,608.19,23.16,0000 0000 0000 0000 000000
2016-03-17 08:44:11,0.14,4.32,0.00,16.98,20.57,24.93,14.89,48.45,1015.16,2058.00,2133.52,2198.39,2503.93,600.04,607.55,23.21,0000 0000 0000 0000 000000
2016-03-17 08:49:13,0.13,4.33,0.00,17.07,20.59,24.91,14.92,48.30,1015.21,2057.99,2131.89,2197.25,2502.59,599.98,607.35,23.26,0000 0000 0000 0000 000000
2016-03-17 08:54:14,0.23,4.33,0.00,17.04,20.61,24.95,14.89,48.29,1015.42,2057.98,2129.81,2195.74,2500.79,599.85,607.42,23.31,0000 0000 0000 0000 000000
2016-03-17 08:59:15,0.14,4.35,0.00,16.99,20.63,25.02,14.86,48.29,1015.56,2057.97,2127.33,2194.06,2498.91,600.08,607.74,23.36,0000 0000 0000 0000 000000
2016-03-17 09:04:17,0.09,4.35,0.00,16.93,20.66,25.08,14.93,48.41,1015.60,2057.94,2126.16,2193.17,2497.93,600.05,607.87,23.41,0000 0000 0000 0000 000000
2016-03-17 09:09:18,0.07,4.35,0.00,16.88,20.68,25.14,14.90,48.33,1015.64,2057.63,2125.02,2192.35,2496.81,600.01,608.04,23.46,0000 0000 0000 0000 000000
2016-03-17 09:14:19,0.27,4.36,0.00,16.83,20.70,25.16,14.91,48.38,1015.64,2057.29,2121.76,2190.18,2494.61,599.94,608.02,23.51,0000 0000 0000 0000 000000
2016-03-17 09:19:20,0.29,4.38,0.00,16.82,20.72,25.19,14.93,48.33,1015.64,2057.13,2118.03,2187.55,2491.79,599.84,607.94,23.56,0000 0000 0000 0000 000000
2016-03-17 09:24:22,0.24,4.39,0.00,16.79,20.74,25.17,14.91,48.38,1015.64,2057.09,2115.10,2185.46,2489.48,599.94,608.13,23.61,0000 0000 0000 0000 000000
2016-03-17 09:29:23,0.67,4.42,0.00,16.79,20.74,25.21,14.86,48.42,1015.65,2057.03,2108.59,2180.46,2483.87,599.75,608.08,23.66,0000 0000 0000 0000 000000
2016-03-17 09:34:24,0.77,4.45,0.00,16.77,20.77,25.21,14.89,48.36,1015.67,2057.01,2099.92,2174.18,2476.78,599.69,607.97,23.71,0000 0000 0000 0000 000000
2016-03-17 09:39:26,0.62,4.49,0.00,16.75,20.78,25.24,14.95,48.52,1015.69,2057.00,2092.70,2168.85,2470.81,599.94,608.20,23.76,0000 0000 0000 0000 000000
2016-03-17 09:44:27,0.63,4.52,0.00,16.75,20.79,25.22,14.90,48.46,1015.67,2057.00,2085.60,2163.63,2465.04,599.80,608.30,23.81,0000 0000 0000 0000 000000
2016-03-17 09:49:28,0.54,4.55,0.00,16.74,20.80,25.23,14.97,48.54,1015.67,2056.99,2079.43,2159.08,2459.96,600.26,608.45,23.86,0000 0000 0000 0000 000000
2016-03-17 09:54:29,0.56,4.58,0.00,16.73,20.82,25.25,14.94,48.38,1015.66,2056.99,2073.05,2154.54,2454.97,600.11,608.54,23.91,0000 0000 0000 0000 000000
2016-03-17 09:59:31,0.57,4.61,0.60,16.71,20.82,25.30,14.89,48.33,1015.78,2056.99,2066.69,2149.87,2449.87,599.84,608.37,23.96,0000 0000 0000 0000 000000
2016-03-17 10:04:32,0.49,4.64,1.00,16.69,20.82,25.29,14.97,48.38,1016.06,2056.98,2061.15,2145.74,2445.25,600.27,608.93,24.01,0000 0000 0000 0000 000000
2016-03-17 10:09:33,0.54,4.66,1.00,16.68,20.84,25.27,14.86,48.37,1016.04,2056.97,2055.54,2141.55,2440.48,600.06,608.76,24.06,0000 0000 0000 0000 000000
2016-03-17 10:14:35,0.55,4.69,1.00,16.67,20.84,25.26,14.95,48.47,1016.08,2056.95,2049.31,2136.96,2435.45,600.11,608.84,24.11,0000 0000 0000 0000 000000
2016-03-17 10:19:36,0.43,4.71,1.00,16.65,20.84,25.27,15.01,48.51,1016.12,2056.86,2044.34,2133.14,2431.25,600.42,609.20,24.16,0000 0000 0000 0000 000000
2016-03-17 10:24:37,0.38,4.73,1.00,16.65,20.85,25.29,14.97,48.45,1016.13,2056.66,2039.86,2129.87,2427.65,600.24,609.14,24.21,0000 0000 0000 0000 000000
2016-03-17 10:29:39,0.40,4.75,0.40,16.65,20.85,25.25,14.96,48.37,1016.13,2056.30,2035.12,2126.38,2423.77,600.20,609.00,24.26,0000 0000 0000 0000 000000
2016-03-17 10:34:40,0.45,4.77,0.00,16.63,20.85,25.26,14.99,48.33,1016.13,2056.41,2030.30,2122.92,2419.87,600.15,608.99,24.31,0000 0000 0000 0000 000000
2016-03-17 10:39:41,0.37,4.79,0.00,16.62,20.84,25.25,14.95,48.42,1016.13,2056.17,2025.75,2119.66,2416.30,600.32,609.11,24.36,0000 0000 0000 0000 000000
2016-03-17 10:44:42,0.40,4.81,0.00,16.62,20.84,25.23,14.96,48.38,1016.14,2056.18,2021.48,2116.61,2412.95,600.36,609.10,24.41,0000 0000 0000 0000 000000
2016-03-17 10:49:44,0.44,4.83,0.00,16.62,20.84,25.22,14.91,48.58,1016.13,2056.26,2016.76,2113.19,2409.24,599.92,608.79,24.46,0000 0000 0000 0000 000000
2016-03-17 10:54:45,0.43,4.86,0.00,16.59,20.84,25.20,14.93,48.35,1016.13,2056.41,2012.22,2110.07,2405.54,600.27,609.20,24.51,0000 0000 0000 0000 000000
2016-03-17 10:59:46,0.33,4.88,0.00,16.59,20.83,25.19,14.90,48.40,1016.13,2056.40,2008.43,2107.38,2402.54,599.86,608.86,24.56,0000 0000 0000 0000 000000
2016-03-17 11:04:47,0.36,4.89,0.00,16.58,20.82,25.17,14.92,48.52,1016.13,2056.45,2004.70,2104.71,2399.60,600.01,609.12,24.61,0000 0000 0000 0000 000000
2016-03-17 11:09:48,0.30,4.91,0.00,16.58,20.82,25.19,14.95,48.33,1016.13,2056.40,2001.29,2102.15,2396.67,600.11,609.17,24.67,0000 0000 0000 0000 000000
2016-03-17 11:14:50,0.30,4.93,0.00,16.58,20.82,25.15,14.92,48.39,1016.13,2056.60,1998.36,2100.00,2394.30,599.89,608.81,24.72,0000 0000 0000 0000 000000
2016-03-17 11:19:51,0.23,4.94,0.00,16.54,20.81,25.17,14.88,48.37,1016.13,2056.88,1995.97,2098.35,2392.40,599.81,608.87,24.77,0000 0000 0000 0000 000000
2016-03-17 11:24:52,0.21,4.95,0.00,16.53,20.80,25.15,14.91,48.35,1016.13,2056.91,1993.81,2096.73,2390.56,599.68,608.75,24.82,0000 0000 0000 0000 000000
2016-03-17 11:29:54,0.18,4.96,0.00,16.52,20.79,25.12,14.91,48.19,1016.13,2056.88,1991.88,2095.19,2388.67,600.26,609.35,24.87,0000 0000 0000 0000 000000
2016-03-17 11:34:55,0.20,4.97,0.00,16.51,20.79,25.13,14.89,48.27,1016.13,2056.56,1989.30,2093.35,2386.64,599.61,608.69,24.92,0000 0000 0000 0000 000000
2016-03-17 11:39:56,0.27,4.98,0.00,16.49,20.77,25.12,14.93,48.32,1016.13,2056.54,1986.48,2091.42,2384.51,600.15,609.36,24.97,0000 0000 0000 0000 000000
2016-03-17 11:44:58,0.24,5.00,0.00,16.48,20.76,25.08,14.95,48.49,1016.14,2056.76,1984.09,2089.60,2382.49,600.22,609.34,25.02,0000 0000 0000 0000 000000
2016-03-17 11:49:59,0.24,5.01,0.00,16.47,20.74,25.08,14.91,48.40,1016.13,2056.82,1981.71,2087.84,2380.60,599.71,608.90,25.07,0000 0000 0000 0000 000000
2016-03-17 11:55:00,0.21,5.02,0.00,16.46,20.72,25.08,14.95,48.42,1016.14,2056.90,1979.37,2086.17,2378.73,599.99,609.21,25.12,0000 0000 0000 0000 000000
2016-03-17 12:00:02,0.20,5.03,0.00,16.44,20.71,25.03,14.91,48.43,1016.15,2056.98,1977.23,2084.67,2377.05,599.97,609.21,25.17,0000 0000 0000 0000 000000
2016-03-17 12:05:03,0.21,5.04,0.00,16.43,20.69,24.99,14.95,48.43,1016.13,2056.98,1975.09,2083.13,2375.36,600.22,609.53,25.22,0000 0000 0000 0000 000000
2016-03-17 12:10:04,0.22,5.05,0.00,16.40,20.67,24.97,15.00,48.50,1016.13,2056.99,1972.74,2081.48,2373.53,600.01,609.34,25.27,0000 0000 0000 0000 000000
2016-03-17 12:15:06,0.22,5.06,0.00,16.39,20.65,24.96,14.89,48.38,1016.13,2056.99,1970.50,2079.81,2371.72,599.93,609.32,25.32,0000 0000 0000 0000 000000
2016-03-17 12:20:07,0.18,5.07,0.00,16.38,20.64,24.98,14.88,48.48,1016.13,2056.99,1968.37,2078.37,2370.08,599.84,609.24,25.37,0000 0000 0000 0000 000000
2016-03-17 12:25:08,0.18,5.08,0.00,16.37,20.62,24.97,14.93,48.50,1016.13,2056.99,1966.47,2076.97,2368.54,599.67,609.09,25.42,0000 0000 0000 0000 000000
2016-03-17 12:30:09,0.13,5.09,0.00,16.34,20.61,24.93,14.86,48.51,1016.12,2057.00,1964.90,2075.86,2367.26,599.60,609.03,25.47,0000 0000 0000 0000 000000
2016-03-17 12:35:10,0.12,5.10,0.00,16.33,20.59,24.92,14.94,48.62,1016.13,2057.01,1963.66,2074.92,2366.34,600.06,609.52,25.52,0000 0000 0000 0000 000000
2016-03-17 12:40:12,0.12,5.10,0.00,16.31,20.59,24.92,14.91,48.45,1016.12,2057.06,1962.34,2074.04,2365.39,600.04,609.62,25.57,0000 0000 0000 0000 000000
2016-03-17 12:45:13,0.12,5.11,0.00,16.29,20.57,24.96,14.97,48.50,1016.11,2057.09,1960.99,2073.08,2364.32,600.35,610.00,25.62,0000 0000 0000 0000 000000
2016-03-17 12:50:15,0.14,5.12,0.00,16.25,20.56,24.91,14.94,48.55,1016.11,2057.17,1959.71,2072.15,2363.27,600.28,609.95,25.67,0000 0000 0000 0000 000000
2016-03-17 12:55:16,0.17,5.12,0.00,16.25,20.54,24.89,14.93,48.66,1016.12,2057.57,1958.42,2071.44,2362.55,600.01,609.74,25.72,0000 0000 0000 0000 000000